Fairbanks, AK

11:53 PM AKDT on September 19, 2019 (GMT -0800)
Fairbanks International

Weather History for PAFA - August, 2019

Change the Weather History Date:

Monday, August 19, 2019

  Actual Average Record
Temperature  
Mean Temperature 49 °F 56 °F  
Max Temperature 61 °F 65 °F 85 °F (1950)
Min Temperature 37 °F 46 °F 31 °F (1914)
Degree Days  
Heating Degree Days 16 10  
Month to date heating degree days 131 141  
Since 1 June heating degree days 252 409  
Since 1 July heating degree days 168 249  
Cooling Degree Days 0 0  
Month to date cooling degree days 0 0  
Year to date cooling degree days 123 55  
Since 1 June cooling degree days 122 54  
Moisture  
Dew Point 35 °F    
Average Humidity 60    
Maximum Humidity 83    
Minimum Humidity 37    
Precipitation  
Precipitation 0.00 in 0.06 in 0.46 in (1947)
Month to date precipitation 5.38 1.22  
Year to date precipitation 11.27 6.91  
Snow  
Snow 0.00 in 0.00 in 0.00 in (2002)
Month to date snowfall 0.0 0.0  
Since 1 June snowfall 0.0 0.0  
Since 1 July snowfall 0.0 0.0  
Snow Depth 0.00 in    
Sea Level Pressure  
Sea Level Pressure 30.05 in    
Wind  
Wind Speed 3 mph ()    
Max Wind Speed 10 mph    
Max Gust Speed -    
Visibility 10.0 miles    
Events      
T = Trace of Precipitation, MM = Missing Value Source: Averaged Metar Reports

Daily Weather History Graph

Daily Weather History Graph

Search for Another Location

Airport or City:

Astronomy

Aug. 19, 2019 Rise Set
Actual Time 5:50 AM AKDT 9:56 PM AKDT
Civil Twilight 4:46 AM AKDT 11:00 PM AKDT
Nautical Twilight 2:36 AM AKDT 12:59 AM AKDT
Astronomical Twilight Sun does not set Sun does not set
Moon 10:54 PM AKDT (8/19) 10:58 AM AKDT (8/19)
Length of Visible Light 18h 13m
Length of Day
16h 06m
Waning Gibbous, 84% of the Moon is Illuminated
Aug 19
Waning Gibbous
Aug 23
Last Quarter
Aug 30
New
Sep 5
First Quarter
Sep 13
Full

Hourly Weather History & Observations

Time (AKDT) Temp. Windchill Dew Point Humidity Pressure Visibility Wind Dir Wind Speed Gust Speed Precip Events Conditions
12:53 AM 48.9 °F - 37.9 °F 66% 30.19 in 10.0 mi NE 3.5 mph - N/A   Mostly Cloudy
1:53 AM 45.0 °F - 36.0 °F 71% 30.17 in 10.0 mi Calm Calm - N/A   Scattered Clouds
2:53 AM 44.1 °F 42.5 °F 35.1 °F 71% 30.15 in 10.0 mi NNE 3.5 mph - N/A   Scattered Clouds
3:53 AM 41.0 °F - 36.0 °F 82% 30.14 in 10.0 mi Calm Calm - N/A   Scattered Clouds
4:53 AM 39.9 °F - 35.1 °F 83% 30.13 in 10.0 mi Calm Calm - N/A   Scattered Clouds
5:53 AM 37.9 °F 34.4 °F 33.1 °F 83% 30.12 in 10.0 mi NNE 4.6 mph - N/A   Mostly Cloudy
6:53 AM 39.9 °F - 34.0 °F 79% 30.11 in 10.0 mi Calm Calm - N/A   Mostly Cloudy
7:53 AM 41.0 °F 39.0 °F 36.0 °F 82% 30.11 in 10.0 mi NE 3.5 mph - N/A   Scattered Clouds
8:53 AM 45.0 °F - 37.0 °F 74% 30.10 in 10.0 mi Calm Calm - N/A   Scattered Clouds
9:53 AM 48.9 °F - 36.0 °F 61% 30.09 in 10.0 mi ENE 3.5 mph - N/A   Scattered Clouds
10:53 AM 51.1 °F - 34.0 °F 52% 30.08 in 10.0 mi Calm Calm - N/A   Partly Cloudy
11:53 AM 53.1 °F - 34.0 °F 48% 30.06 in 10.0 mi SSE 4.6 mph - N/A   Partly Cloudy
12:53 PM 55.9 °F - 30.9 °F 39% 30.04 in 10.0 mi East 4.6 mph - N/A   Partly Cloudy
2:53 PM 57.9 °F - 32.0 °F 37% 30.00 in 10.0 mi ESE 9.2 mph - N/A   Scattered Clouds
3:53 PM 60.1 °F - 34.0 °F 38% 29.99 in 10.0 mi SE 4.6 mph - N/A   Mostly Cloudy
4:53 PM 60.1 °F - 35.1 °F 39% 29.97 in 10.0 mi NE 8.1 mph - N/A   Mostly Cloudy
5:53 PM 59.0 °F - 35.1 °F 41% 29.96 in 10.0 mi NNE 10.4 mph - N/A   Mostly Cloudy
6:53 PM 59.0 °F - 34.0 °F 39% 29.95 in 10.0 mi ENE 4.6 mph - N/A   Mostly Cloudy
7:53 PM 57.9 °F - 35.1 °F 42% 29.94 in 10.0 mi ENE 5.8 mph - N/A   Scattered Clouds
8:53 PM 54.0 °F - 36.0 °F 51% 29.93 in 10.0 mi ENE 6.9 mph - N/A   Partly Cloudy
9:53 PM 50.0 °F - 37.0 °F 61% 29.93 in 10.0 mi NE 6.9 mph - N/A   Partly Cloudy
10:53 PM 48.0 °F - 37.0 °F 66% 29.94 in 10.0 mi North 4.6 mph - N/A   Partly Cloudy
11:53 PM 46.0 °F 42.5 °F 36.0 °F 68% 29.94 in 10.0 mi North 6.9 mph - N/A   Partly Cloudy